Weather History for Clermont County, Batavia, OH

Change the Weather History Date:

Wednesday, January 1, 2014

  Actual Average (KLUK) Record (KLUK)
Temperature  
Mean Temperature 37 °F -  
Max Temperature 46 °F 39 °F 71 °F (1952)
Min Temperature 28 °F 25 °F -4 °F (1968)
Degree Days  
Heating Degree Days 28    
Moisture  
Dew Point 25 °F    
Average Humidity 64    
Maximum Humidity 86    
Minimum Humidity 40    
Precipitation  
Precipitation 0.00 in - - ()
Sea Level Pressure  
Sea Level Pressure 30.17 in    
Wind  
Wind Speed 3 mph (South)    
Max Wind Speed 9 mph    
Max Gust Speed 12 mph    
Visibility 10 miles    
Events      
Averages and records for this station are not official NWS values.
T = Trace of Precipitation, MM = Missing Value Source: NWS Daily Summary

Daily Weather History Graph

Daily Weather History Graph

Search for Another Location

Airport:

Trip Planner

Search our weather history database for the weather conditions in past years. The results will help you decide how hot, cold, wet, or windy it might be!

Date:

Astronomy

Jan. 01, 2014 Rise Set
Actual Time 7:56 AM EST 5:25 PM EST
Civil Twilight 7:26 AM EST 5:55 PM EST
Nautical Twilight 6:52 AM EST 6:28 PM EST
Astronomical Twilight 6:20 AM EST 7:00 PM EST
Moon 7:46 AM EST (1/1) 6:08 PM EST (1/1)
Length of Visible Light 10h 28m
Length of Day
9h 29m
New Moon, 0% of the Moon is Illuminated
Jan 1
New Moon
Jan 7
First Quarter
Jan 15
Full
Jan 24
Last Quarter
Jan 30
New

Hourly Weather History & Observations

Time (EST) Temp. Windchill Dew Point Humidity Pressure Visibility Wind Dir Wind Speed Gust Speed Precip Events Conditions
12:16 AM 32.0 °F 28.7 °F 21.2 °F 64% 30.27 in 10.0 mi SW 3.5 mph - N/A   Clear
12:36 AM 32.0 °F - 21.2 °F 64% 30.27 in 10.0 mi Calm Calm - N/A   Clear
12:56 AM 32.0 °F - 21.2 °F 64% 30.27 in 10.0 mi Calm Calm - N/A   Clear
1:16 AM 30.2 °F - 21.2 °F 69% 30.28 in 10.0 mi Calm Calm - N/A   Clear
1:36 AM 30.2 °F - 23.0 °F 75% 30.28 in 10.0 mi Calm Calm - N/A   Clear
1:56 AM 30.2 °F - 21.2 °F 69% 30.28 in 10.0 mi Calm Calm - N/A   Clear
2:16 AM 30.2 °F - 23.0 °F 75% 30.28 in 10.0 mi Calm Calm - N/A   Clear
2:36 AM 28.4 °F 24.6 °F 21.2 °F 74% 30.28 in 10.0 mi SSE 3.5 mph - N/A   Clear
2:56 AM 28.4 °F 24.6 °F 23.0 °F 80% 30.28 in 10.0 mi SE 3.5 mph - N/A   Clear
3:16 AM 30.2 °F - 23.0 °F 75% 30.27 in 10.0 mi Calm Calm - N/A   Clear
3:36 AM 30.2 °F 26.7 °F 23.0 °F 75% 30.27 in 10.0 mi SSE 3.5 mph - N/A   Clear
3:56 AM 30.2 °F 26.7 °F 23.0 °F 75% 30.26 in 10.0 mi SSE 3.5 mph - N/A   Clear
4:16 AM 30.2 °F 25.4 °F 23.0 °F 75% 30.26 in 10.0 mi SSE 4.6 mph - N/A   Clear
4:36 AM 30.2 °F 25.4 °F 23.0 °F 75% 30.25 in 10.0 mi SSE 4.6 mph - N/A   Clear
4:55 AM 30.2 °F 25.4 °F 23.0 °F 75% 30.24 in 10.0 mi SSE 4.6 mph - N/A   Clear
5:16 AM 28.4 °F 23.3 °F 23.0 °F 80% 30.24 in 10.0 mi SSE 4.6 mph - N/A   Clear
5:36 AM 28.4 °F - 23.0 °F 80% 30.24 in 10.0 mi Calm Calm - N/A   Clear
5:55 AM 28.4 °F 23.3 °F 23.0 °F 80% 30.24 in 10.0 mi SSE 4.6 mph - N/A   Clear
6:16 AM 28.4 °F 24.6 °F 23.0 °F 80% 30.25 in 10.0 mi SSE 3.5 mph - N/A   Clear
6:36 AM 28.4 °F - 23.0 °F 80% 30.25 in 10.0 mi Calm Calm - N/A   Clear
6:55 AM 28.4 °F - 23.0 °F 80% 30.25 in 10.0 mi Calm Calm - N/A   Clear
7:16 AM 28.4 °F - 23.0 °F 80% 30.25 in 10.0 mi Calm Calm - N/A   Clear
7:36 AM 28.4 °F - 23.0 °F 80% 30.25 in 10.0 mi Calm Calm - N/A   Clear
7:55 AM 28.4 °F 24.6 °F 23.0 °F 80% 30.25 in 10.0 mi SE 3.5 mph - N/A   Clear
8:16 AM 28.4 °F 24.6 °F 24.8 °F 86% 30.24 in 10.0 mi SSE 3.5 mph - N/A   Clear
8:36 AM 30.2 °F - 24.8 °F 80% 30.25 in 10.0 mi Calm Calm - N/A   Clear
8:55 AM 30.2 °F - 24.8 °F 80% 30.25 in 10.0 mi Calm Calm - N/A   Clear
9:16 AM 30.2 °F 25.4 °F 26.6 °F 86% 30.25 in 10.0 mi SSE 4.6 mph - N/A   Clear
9:36 AM 32.0 °F 27.5 °F 26.6 °F 80% 30.25 in 10.0 mi SSE 4.6 mph - N/A   Clear
9:55 AM 33.8 °F 29.6 °F 28.4 °F 81% 30.25 in 10.0 mi South 4.6 mph - N/A   Clear
10:16 AM 35.6 °F 30.7 °F 28.4 °F 75% 30.25 in 10.0 mi South 5.8 mph - N/A   Clear
10:36 AM 37.4 °F 32.8 °F 28.4 °F 70% 30.25 in 10.0 mi South 5.8 mph - N/A   Clear
10:55 AM 39.2 °F 34.2 °F 28.4 °F 65% 30.24 in 10.0 mi SW 6.9 mph - N/A   Clear
11:16 AM 41.0 °F 37.1 °F 28.4 °F 61% 30.23 in 10.0 mi SSW 5.8 mph - N/A   Clear
11:36 AM 41.0 °F 36.4 °F 28.4 °F 61% 30.22 in 10.0 mi SSW 6.9 mph - N/A   Clear
11:56 AM 41.0 °F 35.8 °F 28.4 °F 61% 30.21 in 10.0 mi SW 8.1 mph - N/A   Scattered Clouds
12:16 PM 42.8 °F 38.0 °F 28.4 °F 57% 30.20 in 10.0 mi WSW 8.1 mph - N/A   Scattered Clouds
12:36 PM 42.8 °F 37.5 °F 28.4 °F 57% 30.19 in 10.0 mi SW 9.2 mph - N/A   Clear
12:56 PM 42.8 °F 38.6 °F 28.4 °F 57% 30.17 in 10.0 mi WSW 6.9 mph - N/A   Clear
1:16 PM 42.8 °F 39.3 °F 28.4 °F 57% 30.16 in 10.0 mi SW 5.8 mph - N/A   Clear
1:36 PM 44.6 °F 42.2 °F 28.4 °F 53% 30.14 in 10.0 mi South 4.6 mph - N/A   Clear
1:56 PM 44.6 °F 43.1 °F 28.4 °F 53% 30.13 in 10.0 mi SSW 3.5 mph - N/A   Clear
2:16 PM 46.4 °F 41.9 °F 28.4 °F 50% 30.13 in 10.0 mi WSW 9.2 mph - N/A   Clear
2:35 PM 46.4 °F 43.5 °F 26.6 °F 46% 30.12 in 10.0 mi WSW 5.8 mph - N/A   Clear
2:56 PM 46.4 °F 41.9 °F 26.6 °F 46% 30.11 in 10.0 mi WSW 9.2 mph - N/A   Clear
3:16 PM 46.4 °F 42.4 °F 26.6 °F 46% 30.11 in 10.0 mi SW 8.1 mph 11.5 mph N/A   Clear
3:35 PM 46.4 °F 42.9 °F 24.8 °F 43% 30.10 in 10.0 mi SW 6.9 mph - N/A   Clear
3:56 PM 46.4 °F 42.4 °F 23.0 °F 40% 30.09 in 10.0 mi SW 8.1 mph - N/A   Clear
4:16 PM 46.4 °F 43.5 °F 23.0 °F 40% 30.09 in 10.0 mi SSW 5.8 mph - N/A   Clear
4:35 PM 46.4 °F 43.5 °F 23.0 °F 40% 30.09 in 10.0 mi SW 5.8 mph - N/A   Clear
4:56 PM 44.6 °F - 23.0 °F 43% 30.10 in 10.0 mi Calm Calm - N/A   Clear
5:16 PM 44.6 °F - 23.0 °F 43% 30.09 in 10.0 mi Calm Calm - N/A   Clear
5:35 PM 44.6 °F - 24.8 °F 46% 30.09 in 10.0 mi Calm Calm - N/A   Clear
5:56 PM 44.6 °F - 24.8 °F 46% 30.09 in 10.0 mi Calm Calm - N/A   Clear
6:16 PM 42.8 °F - 24.8 °F 49% 30.09 in 10.0 mi Calm Calm - N/A   Scattered Clouds
6:36 PM 42.8 °F - 24.8 °F 49% 30.09 in 10.0 mi Calm Calm - N/A   Scattered Clouds
6:56 PM 42.8 °F - 24.8 °F 49% 30.09 in 10.0 mi Calm Calm - N/A   Clear
7:16 PM 42.8 °F - 24.8 °F 49% 30.09 in 10.0 mi Calm Calm - N/A   Clear
7:36 PM 42.8 °F - 24.8 °F 49% 30.08 in 10.0 mi Calm Calm - N/A   Clear
7:56 PM 42.8 °F - 24.8 °F 49% 30.08 in 10.0 mi Calm Calm - N/A   Clear
8:16 PM 41.0 °F - 24.8 °F 53% 30.07 in 10.0 mi Calm Calm - N/A   Clear
8:36 PM 39.2 °F - 26.6 °F 61% 30.07 in 10.0 mi Calm Calm - N/A   Clear
8:56 PM 41.0 °F - 26.6 °F 57% 30.07 in 10.0 mi Calm Calm - N/A   Clear
9:16 PM 39.2 °F - 24.8 °F 56% 30.06 in 10.0 mi Calm Calm - N/A   Clear
9:36 PM 37.4 °F 34.9 °F 24.8 °F 60% 30.05 in 10.0 mi SSE 3.5 mph - N/A   Scattered Clouds
9:56 PM 37.4 °F - 24.8 °F 60% 30.05 in 10.0 mi Calm Calm - N/A   Scattered Clouds
10:16 PM 37.4 °F - 26.6 °F 65% 30.04 in 10.0 mi Calm Calm - N/A   Clear
10:36 PM 37.4 °F - 26.6 °F 65% 30.03 in 10.0 mi Calm Calm - N/A   Clear
10:56 PM 37.4 °F - 26.6 °F 65% 30.03 in 10.0 mi Calm Calm - N/A   Clear
11:16 PM 37.4 °F - 26.6 °F 65% 30.02 in 10.0 mi Calm Calm - N/A   Clear
11:36 PM 37.4 °F - 26.6 °F 65% 30.02 in 10.0 mi Calm Calm - N/A   Mostly Cloudy
11:56 PM 37.4 °F - 26.6 °F 65% 30.00 in 10.0 mi Calm Calm - N/A   Overcast